Theta_e
301 302 302 302 302 302 301 301 302 302 302 302 301 300 300 300 301 302 302 303 304 305 304 305 307 309 309 308 309 309 311 311 311 311 311 311 312 311 312 311 312 312 313 312 312 312 311 311 310 310 310 307
299 299 300 299 299 299 299 299 299 299 299 299 298 298 297 296 296 298 299 299 301 302 302 301 303 306 307 307 307 307 308 309 309 309 309 309 309 309 309 308 308 309 310 310 310 309 308 307 307 307 307 305
293 297 297 297 297 297 297 296 296 296 296 295 295 295 294 293 293 293 296 295 297 298 299 299 299 302 305 305 304 304 305 307 306 307 307 307 306 306 306 305 305 305 307 307 307 307 305 305 304 304 303 302
286 292 295 295 295 295 294 294 293 293 293 293 292 291 291 290 286 288 288 293 289 294 295 296 295 298 302 303 302 302 302 303 304 304 304 305 304 304 303 302 300 301 303 303 304 303 302 301 300 298 299 299
285 289 289 290 292 293 292 291 291 290 289 288 289 287 287 286 282 281 283 284 285 290 287 293 294 295 297 301 300 299 299 300 301 301 302 302 302 300 299 298 295 296 298 299 300 300 299 298 294 295 296 297
284 285 287 282 283 286 287 288 287 285 283 285 280 285 282 280 282 280 281 283 286 284 286 287 292 292 294 297 297 296 296 296 298 298 299 299 298 297 296 295 287 289 293 295 297 296 295 291 292 293 294 294
285 282 281 281 282 285 287 286 283 280 282 278 279 280 279 281 280 279 281 283 285 285 287 286 289 289 290 292 293 292 291 292 294 294 295 296 295 294 293 286 286 287 287 287 293 292 288 288 289 290 291 292
282 281 281 281 281 281 281 280 282 279 279 279 279 279 279 278 280 278 278 284 284 283 280 281 285 287 286 287 288 289 284 287 288 289 290 291 291 288 286 284 285 286 286 286 286 286 286 286 286 287 289 290
281 281 281 281 281 281 280 280 279 279 279 279 279 279 279 278 279 278 277 278 278 278 278 278 278 278 278 279 279 285 279 279 280 281 279 280 282 281 282 283 283 284 285 286 286 285 285 285 285 285 287 288
285 282 280 281 282 280 280 280 279 279 279 279 279 280 280 279 277 277 277 277 277 277 277 277 277 277 278 278 278 281 278 278 279 278 278 279 279 280 281 282 282 283 285 284 285 284 284 284 284 284 285 286
281 279 280 281 283 280 280 279 278 278 279 279 279 279 281 278 277 277 277 277 277 276 277 277 276 277 277 277 277 279 278 278 278 277 278 278 278 279 280 281 281 282 283 283 284 283 283 283 283 283 284 285
279 279 280 285 284 281 287 281 279 278 279 280 279 281 281 281 277 276 276 277 276 276 276 276 276 276 276 277 277 278 278 277 277 277 277 277 277 278 279 280 280 281 282 283 283 282 282 281 282 282 283 284
279 279 279 280 279 278 288 277 279 279 280 277 281 280 281 281 277 276 277 276 276 275 276 276 276 276 275 276 277 277 277 277 277 276 276 276 277 277 278 278 279 281 281 282 282 282 281 281 281 281 282 283
278 279 278 280 281 279 284 277 279 281 278 277 277 279 280 282 277 276 276 276 276 276 275 275 275 276 275 275 276 276 276 277 277 276 276 276 276 276 277 277 278 279 279 280 281 281 281 280 280 281 281 282
279 281 278 282 281 278 279 279 282 281 278 277 277 278 279 279 281 277 276 276 276 275 275 275 275 275 275 275 275 276 276 277 277 276 276 275 276 276 276 276 277 278 278 278 279 280 279 280 280 280 281 282
279 280 279 282 277 278 278 281 278 277 277 281 277 279 277 278 278 281 276 276 277 276 275 275 275 275 275 275 275 276 276 276 276 276 276 276 276 276 276 276 276 277 277 277 278 278 278 279 279 280 281 281
279 279 279 281 278 278 282 279 280 277 277 277 277 278 277 277 279 282 277 276 277 279 275 275 275 275 276 275 275 276 276 276 275 276 275 276 276 276 276 276 276 277 276 276 277 277 277 278 279 280 280 281
278 278 278 280 278 283 280 278 277 280 278 278 280 279 277 277 278 278 277 276 276 276 275 275 275 275 275 275 275 275 276 275 275 275 275 275 275 278 276 275 275 275 275 276 277 277 277 277 278 279 279 280
279 279 280 281 279 278 278 277 277 276 276 276 276 277 276 278 279 279 277 277 276 276 275 275 275 275 275 275 276 275 275 275 275 275 275 275 274 275 275 275 276 275 274 275 276 276 277 277 278 279 278 279
281 281 279 279 282 278 278 279 277 276 277 277 276 277 277 277 277 281 276 277 276 277 276 276 276 276 276 276 275 275 275 275 275 275 276 275 275 274 274 276 274 274 274 275 276 276 276 277 278 277 277 278
279 279 278 278 279 281 279 277 277 277 276 276 276 276 276 276 278 280 278 277 277 276 276 276 275 275 275 277 275 275 275 274 277 275 276 275 276 274 274 274 274 274 275 275 276 275 275 276 277 276 276 278
279 279 278 278 278 281 279 278 277 277 277 277 277 276 276 277 277 280 278 277 276 276 276 276 275 275 275 276 275 275 275 275 275 275 274 274 274 275 274 274 274 274 274 276 276 275 275 275 275 275 276 278
278 278 277 277 277 276 277 278 277 277 276 277 277 276 277 277 278 279 278 278 277 276 276 277 276 275 275 276 275 275 274 274 275 276 274 274 274 275 274 274 274 274 275 275 275 275 274 275 275 275 277 281
278 278 278 278 277 277 278 278 278 278 277 277 276 278 277 277 277 277 279 277 276 276 277 276 276 275 275 275 275 275 274 274 274 274 274 274 275 274 275 275 274 274 275 274 274 275 275 274 275 276 278 282
277 277 276 276 277 278 278 278 277 278 278 278 277 278 277 277 278 277 277 278 277 276 278 278 276 275 275 275 275 275 275 274 274 274 275 275 274 275 273 273 274 275 275 274 274 274 273 274 275 278 278 280
279 278 278 278 278 277 277 277 278 279 278 278 279 278 278 278 277 277 277 279 277 277 275 276 275 275 275 275 275 275 275 275 277 276 273 274 273 275 274 273 274 274 274 272 271 271 272 273 274 276 279 275
279 278 279 279 278 278 277 277 278 278 279 279 279 278 278 278 277 277 277 276 278 277 276 275 275 275 275 275 276 276 274 274 273 273 273 272 272 271 273 274 276 273 273 268 271 271 270 270 271 275 277 275
280 280 279 278 278 277 277 277 279 276 277 277 276 277 277 277 277 277 277 276 277 278 276 275 275 275 274 275 275 275 274 274 274 273 273 271 272 272 268 270 270 276 272 270 272 267 265 269 267 268 273 271
280 279 278 278 278 278 278 277 276 276 277 277 278 278 277 278 277 277 277 277 276 278 276 275 274 274 274 274 274 275 274 274 274 274 273 273 272 271 269 268 270 271 272 270 272 268 267 265 263 262 269 271
280 280 279 278 277 277 277 277 277 277 278 278 277 278 279 277 277 277 277 277 277 277 277 275 275 274 274 273 274 274 274 273 274 273 273 273 273 270 272 270 270 266 271 272 273 270 271 271 267 269 269 269
280 279 279 278 278 279 278 278 279 279 279 279 278 278 277 278 277 277 277 277 277 276 277 276 275 275 274 274 273 275 273 272 273 273 273 274 273 272 274 271 267 269 268 269 268 271 273 272 271 269 267 265
Wind_Speed
17 17 18 19 20 20 21 21 21 20 20 20 20 21 21 20 20 21 21 21 22 22 23 23 23 23 23 24 23 23 23 23 23 24 24 24 23 23 23 23 22 22 23 23 23 22 22 21 21 20 18 9
17 17 18 19 19 20 20 20 20 20 20 20 20 20 20 20 20 20 21 21 21 22 22 22 23 23 23 24 23 24 23 23 24 24 24 24 24 23 23 23 22 22 22 23 23 22 22 22 21 19 18 9
9 16 16 18 18 19 20 20 20 20 19 19 19 20 19 19 19 19 19 20 20 20 21 22 21 23 23 23 24 23 23 23 23 24 24 24 24 23 23 22 22 22 23 22 22 22 22 22 20 20 13 10
5 12 16 17 18 19 19 19 19 19 18 17 18 18 18 18 14 14 14 21 16 20 21 23 20 23 22 23 24 23 23 23 23 23 23 23 23 23 23 22 21 21 22 22 22 22 22 21 19 11 9 11
5 9 13 11 15 17 17 17 16 16 14 13 13 13 14 12 9 8 8 10 10 16 13 19 21 22 22 23 23 23 23 23 24 23 23 23 22 22 22 21 19 20 20 21 22 21 20 20 11 10 10 10
5 4 7 6 4 5 7 10 10 7 6 7 4 10 7 6 6 6 5 6 9 7 10 12 20 19 21 21 22 22 22 22 22 23 23 22 22 21 20 21 11 11 15 19 21 20 20 11 9 10 10 10
4 4 4 4 5 4 7 6 5 5 5 4 5 4 5 5 5 4 4 6 9 8 13 13 17 18 19 20 20 21 20 21 21 22 22 22 21 20 20 11 9 9 9 10 18 16 11 9 9 9 9 9
4 4 4 4 4 5 4 4 4 4 4 4 4 4 4 5 4 4 5 8 11 9 6 8 13 16 16 16 17 20 12 16 18 19 19 20 20 13 9 8 9 9 8 9 9 9 9 9 9 9 9 8
4 4 4 3 3 4 3 3 3 3 3 3 3 3 4 4 4 4 5 5 5 6 5 5 6 6 7 7 8 13 8 8 9 10 10 10 11 9 10 10 10 9 9 8 9 9 9 9 9 9 8 8
3 3 4 3 2 3 2 4 3 2 3 3 3 3 3 3 5 5 5 5 6 6 6 7 7 6 6 7 7 7 7 7 8 8 8 8 9 8 8 8 8 9 8 9 9 8 9 9 9 8 8 9
3 2 2 2 3 3 2 2 3 2 2 3 3 3 3 5 5 5 5 6 6 7 6 6 6 6 6 6 7 6 6 7 7 7 7 7 7 7 7 8 8 8 9 8 9 9 9 9 9 8 8 8
3 1 2 1 1 1 1 3 2 2 2 2 4 3 4 3 5 5 6 5 6 5 4 5 4 4 5 5 6 5 5 7 6 7 7 7 7 8 7 8 8 8 8 8 8 9 10 10 9 8 8 8
3 2 2 1 1 1 1 2 1 1 1 2 1 1 2 3 5 4 4 4 3 2 4 3 4 5 5 5 5 5 6 6 7 7 7 7 7 7 7 7 8 8 7 7 7 8 10 10 10 9 8 8
4 2 3 1 1 0 1 0 0 0 0 1 1 1 1 1 3 3 3 3 1 3 3 3 3 4 5 5 5 5 6 5 5 6 7 7 7 7 7 7 7 7 7 7 7 7 8 9 9 8 8 9
3 2 2 1 0 0 1 1 1 1 2 1 1 1 1 1 1 3 2 3 2 3 3 3 3 4 3 5 5 4 5 4 5 5 5 6 7 7 7 7 6 7 7 7 7 7 7 8 8 8 7 8
3 2 3 1 1 0 1 2 3 3 2 3 3 3 3 2 2 2 2 3 2 3 3 3 4 3 4 4 4 4 4 5 5 5 4 5 5 4 5 6 6 6 7 7 8 8 8 7 7 8 7 7
3 3 2 2 2 2 1 2 3 4 4 5 4 3 3 3 2 1 2 2 2 2 3 3 3 3 3 3 3 3 4 4 4 5 6 7 6 6 7 8 9 7 7 8 9 8 8 7 8 7 7 7
3 3 3 3 3 3 1 2 2 3 3 3 3 3 3 3 2 2 2 2 1 2 2 3 3 3 3 2 2 2 3 5 4 5 6 6 6 7 7 8 7 8 9 8 8 8 8 7 7 7 7 6
4 3 4 5 4 4 4 3 3 3 3 3 3 2 3 3 3 2 2 1 1 1 2 2 2 2 1 1 1 2 2 3 4 4 5 5 7 6 7 6 7 7 7 8 10 9 8 8 8 7 7 6
6 5 5 4 4 5 4 4 4 4 4 3 2 2 3 3 3 2 2 1 1 0 0 0 1 1 0 1 1 2 3 3 5 4 5 5 4 7 7 7 8 6 7 7 8 8 8 8 8 7 6 6
5 4 4 5 4 5 4 5 4 4 3 2 3 3 3 3 3 2 2 2 2 2 2 2 2 2 0 0 2 2 3 3 3 3 4 5 4 3 5 6 6 7 7 8 7 7 7 9 8 7 6 5
6 6 5 4 5 3 4 4 4 4 2 4 3 2 4 3 3 3 3 3 3 3 3 3 3 2 1 1 0 1 2 2 1 2 2 4 3 4 4 6 7 7 6 7 8 6 7 9 7 8 6 4
4 4 3 2 3 3 4 4 4 3 3 5 3 4 4 3 3 3 3 3 3 3 4 3 3 3 2 1 0 1 2 3 2 2 2 2 3 2 3 4 5 5 6 8 6 6 6 6 8 8 4 3
4 3 5 6 4 4 5 5 4 4 5 4 4 4 4 4 4 3 3 3 3 3 3 3 4 3 1 1 1 0 2 3 2 2 2 3 2 4 3 3 4 5 7 7 4 6 5 5 6 7 4 2
6 6 4 3 5 7 6 5 4 5 5 5 5 5 4 4 5 4 4 4 3 5 4 4 3 3 3 2 2 2 3 3 3 2 1 1 2 2 4 3 3 5 6 8 9 3 3 4 4 7 2 1
7 6 6 6 7 6 6 6 6 7 6 7 6 6 5 5 5 5 5 4 4 4 4 4 3 3 4 3 3 3 3 2 2 1 1 0 2 0 1 2 2 4 7 4 8 14 14 0 3 4 3 1
8 6 6 7 6 6 5 4 5 5 5 4 6 6 6 6 6 6 6 5 5 5 4 4 3 4 4 3 3 3 3 3 3 2 2 1 0 2 1 1 1 2 4 2 4 4 5 9 13 1 2 2
9 7 7 6 5 4 4 4 1 3 3 4 3 7 5 6 6 6 7 5 5 5 5 5 5 5 4 5 4 5 4 3 3 2 2 1 1 0 2 1 1 1 1 3 6 7 2 6 2 12 1 10
7 5 4 4 2 1 2 3 4 3 6 6 6 5 6 10 6 7 7 6 6 6 6 5 5 4 5 5 5 5 5 4 5 4 3 3 2 2 2 2 1 1 1 1 2 1 3 5 3 3 9 14
8 8 9 7 7 7 6 8 7 9 13 8 8 11 8 4 6 7 7 7 7 7 6 7 7 5 5 5 4 5 5 5 3 4 4 5 5 3 4 3 1 2 1 2 3 4 5 6 5 9 6 4
8 8 8 11 11 10 10 11 10 10 9 7 7 6 7 8 6 7 8 8 8 8 8 7 7 7 7 6 6 5 4 4 5 5 5 4 5 5 4 3 2 4 4 0 2 3 5 5 4 3 2 5
Wind_Direction
58 58 57 55 53 51 50 49 48 47 46 46 45 44 42 39 38 37 36 36 35 34 31 29 28 29 29 29 27 27 26 25 24 23 23 22 21 19 17 16 15 14 15 14 14 13 11 11 10 8 9 2
59 58 59 58 57 54 52 50 49 48 47 46 45 43 42 39 37 37 37 34 35 34 33 30 28 29 30 29 28 26 25 24 23 23 21 21 20 19 16 15 14 13 13 13 12 11 11 10 9 9 10 3
51 62 61 61 60 57 55 54 51 49 47 46 43 42 41 39 37 35 34 34 32 32 31 31 28 27 30 31 30 28 26 24 24 22 21 19 19 18 17 15 12 11 12 12 11 10 10 8 7 7 9 5
55 58 61 62 61 59 56 54 53 50 47 45 45 42 40 39 34 28 27 32 27 27 26 26 26 24 26 29 29 27 25 24 24 23 21 19 18 17 17 16 12 10 9 9 10 10 9 8 6 7 4 359
55 61 56 47 56 58 59 57 57 56 52 48 44 48 43 37 33 22 21 24 26 25 23 24 25 23 24 25 26 25 24 22 22 22 21 19 18 16 15 15 13 12 9 7 8 8 8 7 7 2 359 357
64 56 64 62 53 65 58 59 56 54 53 52 43 47 45 38 37 27 20 30 33 24 26 22 28 26 24 25 25 24 21 20 21 20 20 19 19 16 15 12 9 7 6 6 6 6 5 8 4 358 357 355
76 75 77 69 66 55 59 58 55 49 53 49 50 52 46 49 45 41 28 36 41 38 33 31 30 28 26 24 24 23 19 19 18 18 16 16 17 15 14 12 10 4 360 360 2 3 4 3 359 354 355 354
80 75 72 72 65 65 66 58 57 53 55 55 51 53 53 47 52 48 41 40 40 37 31 26 28 28 26 23 20 22 18 17 15 16 14 13 14 13 11 8 6 2 359 0 359 358 359 355 354 355 354 352
83 76 74 71 76 78 79 80 66 60 64 60 60 57 63 57 55 49 46 42 36 35 30 31 28 24 21 17 16 18 16 15 9 11 8 8 10 10 7 5 3 0 1 359 357 357 353 351 349 350 351 348
98 85 89 104 121 107 105 109 95 89 77 70 62 63 66 63 53 46 44 40 36 33 27 29 27 24 19 19 19 16 15 13 11 11 10 9 9 6 4 4 359 0 359 353 354 354 350 349 347 348 346 346
103 129 154 163 151 121 132 138 108 85 74 65 61 53 53 60 47 46 45 37 33 34 23 29 21 20 16 20 19 13 17 14 13 12 9 9 7 358 1 2 360 0 358 355 351 349 348 347 345 344 345 345
128 146 115 100 86 108 132 100 91 84 74 61 47 49 48 68 62 54 45 40 37 31 30 30 21 15 22 23 19 10 19 17 13 13 11 7 4 5 2 2 358 359 356 354 353 348 346 344 344 344 342 341
147 143 112 84 78 41 78 86 93 116 50 63 54 41 46 67 66 62 63 54 48 38 43 30 27 24 25 25 17 11 19 21 11 11 10 8 4 2 1 1 359 357 351 352 353 350 343 342 340 342 341 340
124 130 98 82 114 249 82 99 199 102 263 195 93 98 84 95 109 101 90 91 74 62 42 34 28 33 23 27 12 16 21 14 16 8 6 7 7 3 1 0 356 354 348 350 351 349 342 338 336 335 338 336
139 130 125 126 127 90 194 220 178 214 242 265 229 215 189 200 159 137 133 108 101 78 66 45 41 32 24 26 17 17 16 10 22 11 13 6 0 358 357 356 349 354 352 347 349 347 341 334 331 331 334 332
150 164 172 165 107 211 213 168 184 213 214 227 223 215 210 195 177 154 139 117 106 92 65 54 46 34 34 21 9 13 12 8 13 17 3 3 2 349 357 351 355 356 354 350 345 341 339 334 333 329 331 331
182 181 181 164 191 211 178 167 180 205 214 221 221 209 211 215 199 167 145 136 110 107 99 73 51 31 37 20 8 3 5 11 4 9 10 6 359 360 5 1 1 358 354 352 346 339 334 334 329 327 328 327
176 199 207 198 186 182 183 222 188 221 226 224 226 214 214 214 224 171 190 147 139 123 92 71 65 47 16 14 360 1 8 16 10 8 11 8 4 1 4 1 353 355 353 349 339 339 332 332 325 323 327 327
200 202 203 198 200 188 188 204 202 233 243 244 245 227 242 232 231 198 193 180 137 111 94 66 36 30 328 326 16 13 9 31 15 17 7 8 12 355 355 358 350 356 346 342 341 334 331 327 324 323 323 326
202 205 201 201 202 201 188 195 206 226 225 231 248 238 258 241 240 232 221 202 167 192 181 78 318 279 246 16 28 10 3 26 24 6 5 3 20 1 352 350 347 351 343 340 334 329 324 320 322 319 320 328
208 209 212 210 212 211 201 198 222 230 216 235 253 251 257 267 255 253 234 224 201 210 226 215 225 249 214 118 47 5 2 16 23 26 9 351 2 22 337 341 336 340 344 336 327 321 317 317 318 315 315 322
204 211 214 218 218 227 216 221 219 232 207 243 242 250 256 260 264 254 238 231 214 218 229 212 218 238 195 175 100 21 1 342 358 48 47 354 339 353 346 339 340 336 336 328 322 315 310 313 310 305 312 314
206 219 233 252 251 265 263 263 250 234 241 241 236 238 247 258 255 258 254 246 222 222 243 235 234 240 226 170 145 47 343 330 346 5 9 6 321 325 313 316 319 323 321 324 313 303 306 299 298 295 295 324
203 207 224 232 261 277 256 252 250 234 228 240 233 239 236 241 247 250 250 248 229 225 239 240 246 245 222 186 157 301 320 306 307 317 334 329 330 325 331 322 321 331 331 315 293 305 301 274 287 288 304 28
194 204 225 226 226 232 230 228 230 243 242 239 237 234 227 230 232 232 236 237 210 220 229 227 239 236 266 192 187 200 237 235 244 233 205 227 282 318 346 323 341 335 329 333 330 315 281 287 261 277 324 89
195 199 192 185 208 206 225 225 230 242 233 232 231 224 224 224 222 222 219 222 207 215 204 224 229 226 242 209 209 214 225 227 233 249 266 207 339 140 358 311 341 333 358 18 7 337 335 98 288 268 127 21
207 200 208 195 212 187 228 228 228 231 238 231 232 230 223 221 217 213 218 215 207 203 210 212 210 224 222 217 201 209 237 219 248 218 234 204 172 316 292 245 282 36 68 323 328 281 309 334 349 302 355 7
212 202 202 212 215 212 199 227 210 234 265 253 248 248 222 227 213 209 214 208 204 206 205 199 206 217 209 222 201 192 206 222 235 229 229 191 201 165 346 5 305 89 99 109 4 359 36 302 19 325 140 326
200 197 205 202 238 290 301 285 268 275 262 225 228 245 232 231 204 212 214 207 204 201 206 202 203 200 210 210 206 193 199 206 213 208 203 191 178 193 204 287 223 308 124 109 136 138 355 337 1 218 310 331
186 198 200 196 203 226 226 244 232 232 236 223 210 221 231 231 208 210 214 211 206 207 201 203 202 202 202 210 206 198 204 206 199 211 204 204 178 198 208 186 214 271 296 150 170 183 179 188 239 308 313 23
190 203 207 209 211 215 218 226 238 231 236 220 221 212 226 228 216 212 210 217 206 206 207 203 200 200 203 205 203 202 190 200 205 206 205 187 173 198 186 166 207 226 243 45 262 204 221 232 232 204 310 281